Flag for Norway Weather past 2 weeks in Sandefjord, Norway

Now
37 °F

Drizzle. Low clouds.


Feels Like: 26 °F
Forecast: 37 / 43 °F
Wind: 23 mph from South

Location: Torp

Current Time: Mar 1, 2015 at 4:53:25 AM

Latest Report: Mar 1, 2015 at 3:50 AM


Visibility: 1 mi

Pressure: 29.36 "Hg

Humidity: 93%

Dew point: 36 °F

Location of SandefjordLocation

Historic Weather in Sandefjord — Graph

°F

Sandefjord temperature yesterday

Maximum temperature yesterday: 39 °F (at 10:20 AM)
Minimum temperature yesterday: 30 °F (at 2:20 AM)
Average temperature yesterday: 36 °F

Past Weeks' High & Low Weather Summary

 TemperatureHumidityPressure
High43 °F (Feb 18, 2:20 AM)100% (Feb 16, 11:50 PM)30.48 "Hg (Feb 16, 11:50 PM)
Low28 °F (Feb 21, 6:20 AM)42% (Feb 22, 2:20 PM)28.97 "Hg (Feb 23, 11:50 AM)
Average37 °F87%29.74 "Hg
* Reported Feb 14 3:20 AM — Mar 1 3:20 AM, Sandefjord, Weather by CustomWeather, © 2015

Note: Actual official high and low records may vary slightly from our data, if they occured in-between our weather recording intervals... More about our weather records

Advertising

Sandefjord weather history for previous 24 hours

 ConditionsComfort  
Time TempWeatherWind HumidityBarometerVisibility
3:20 AM
Sun, Mar 1
37 °FDrizzle. Low clouds.24 mph93%29.36 "Hg1 mi
2:50 AM37 °FDrizzle. Low clouds.23 mph93%29.39 "Hg1 mi
2:20 AM37 °FDrizzle. Low clouds.24 mph93%29.42 "Hg1 mi
1:50 AM36 °FDrizzle. Mostly cloudy.24 mph100%29.42 "Hg1 mi
1:20 AM37 °FLight rain. Mostly cloudy.26 mph93%29.45 "Hg1 mi
12:50 AM36 °FLight rain. Low clouds.24 mph100%29.45 "Hg3 mi
12:20 AM36 °FLight rain. Low clouds.24 mph100%29.47 "Hg3 mi
11:50 PM
Sat, Feb 28
37 °FLight rain. Mostly cloudy.24 mph93%29.47 "Hg3 mi
11:20 PM37 °FLight rain. Low clouds.25 mph93%29.50 "Hg2 mi
10:50 PM37 °FLight rain. Mostly cloudy.30 mph93%29.53 "Hg3 mi
10:20 PM37 °FRain. Fog.23 mph100%29.53 "Hg2 mi
9:50 PM37 °FDrizzle. Fog.23 mph100%29.56 "Hg3 mi
9:20 PM37 °FDrizzle. Fog.24 mph100%29.56 "Hg2 mi
8:50 PM37 °FDrizzle. Fog.21 mph100%29.56 "Hg2 mi
8:20 PM37 °FDrizzle. Low clouds.24 mph100%29.59 "Hg2 mi
7:50 PM37 °FDrizzle. Fog.23 mph100%29.59 "Hg2 mi
7:20 PM37 °FDrizzle. Low clouds.22 mph100%29.62 "Hg3 mi
6:50 PM37 °FDrizzle. Fog.23 mph100%29.62 "Hg2 mi
6:20 PM37 °FRain. Fog.23 mph100%29.62 "Hg2 mi
5:50 PM37 °FLight rain. Fog.24 mph93%29.62 "Hg1 mi
5:20 PM37 °FDrizzle. Fog.23 mph93%29.65 "Hg2 mi
4:50 PM37 °FDrizzle. Partly sunny.26 mph93%29.65 "Hg3 mi
4:20 PM37 °FDrizzle. Mostly cloudy.25 mph93%29.65 "Hg3 mi
3:50 PM37 °FDrizzle. Mostly cloudy.23 mph93%29.68 "Hg4 mi
3:20 PM39 °FDrizzle. Low clouds.23 mph87%29.68 "Hg5 mi
2:50 PM39 °FSprinkles. Partly sunny.23 mph87%29.68 "Hg6 mi
2:20 PM39 °FLow clouds.24 mph87%29.71 "HgN/A
1:50 PM39 °FPartly sunny.22 mph87%29.71 "HgN/A
1:20 PM39 °FMostly cloudy.22 mph87%29.71 "HgN/A
12:50 PM39 °FMostly cloudy.22 mph87%29.74 "HgN/A
12:20 PM39 °FPartly sunny.24 mph87%29.74 "HgN/A
11:50 AM39 °FPartly sunny.22 mph87%29.74 "HgN/A
11:20 AM39 °FPartly sunny.18 mph87%29.74 "HgN/A
10:50 AM39 °FPartly sunny.18 mph87%29.77 "HgN/A
10:20 AM39 °FPartly sunny.17 mph87%29.77 "HgN/A
9:50 AM37 °FPartly sunny.15 mph93%29.77 "HgN/A
9:20 AM37 °FPartly sunny.17 mph93%29.77 "HgN/A
8:50 AM37 °FRain showers. Partly sunny.14 mph93%29.80 "HgN/A
8:20 AM36 °FRain showers. Partly sunny.13 mph93%29.80 "HgN/A
7:50 AM37 °FRain showers. Partly sunny.13 mph87%29.80 "Hg4 mi
7:20 AM36 °FMore clouds than sun.13 mph93%29.80 "HgN/A
6:50 AM36 °FMostly cloudy.10 mph100%29.80 "HgN/A
6:20 AM36 °FMostly cloudy.9 mph93%29.80 "HgN/A
5:50 AM34 °FPartly cloudy.8 mph100%29.80 "HgN/A
5:20 AM30 °FPassing clouds.9 mph93%29.83 "HgN/A
4:50 AM32 °FPassing clouds.9 mph87%29.83 "HgN/A
4:20 AM30 °FPassing clouds.3 mph86%29.83 "HgN/A
Weather by CustomWeather, © 2015

See weather overviewHow to use our weather pages